EHI
0 0 0 0 0 0 0 0 0 0 0 0 0 0 0 0 0 0 0 0 0 0 0 0 0 0 0 0 0 0 0 0 0 0 0 0 0 0 0 0 0 0 0 0
0 0 0 0 0 0 0 0 0 0 0 0 0 0 0 0 0 0 0 0 0 0 0 0 0 0 0 0 0 0 0 0 0 0 0 0 0 0 0 0 0 0 0 0
0 0 0 0 0 0 0 0 0 0 0 0 0 0 0 0 0 0 0 0 0 0 0 0 0 0 0 0 0 0 0 0 0 0 0 0 0 0 0 0 0 0 0 0
0 0 0 0 0 0 0 0 0 0 0 0 0 0 0 0 0 0 0 0 0 0 0 0 0 0 0 0 0 0 0 0 0 0 0 0 0 0 0 0 0 0 0 0
0 0 0 0 0 0 0 0 0 0 0 0 0 0 0 0 0 0 0 0 0 0 0 0 0 0 0 0 0 0 0 0 0 0 0 0 0 0 0 0 0 0 0 0
0 0 0 0 0 0 0 0 0 0 0 0 0 0 0 0 0 0 0 0 0 0 0 0 0 0 0 0 0 0 0 0 0 0 0 0 0 0 0 0 0 0 0 0
0 0 0 0 0 0 0 0 0 0 0 0 0 0 0 0 0 0 0 0 0 0 0 0 0 0 0 0 0 0 0 0 0 0 0 0 0 0 0 0 0 0 0 0
0 0 0 0 0 0 0 0 0 0 0 0 0 0 0 0 0 0 0 0 0 0 0 0 0 0 0 0 0 0 0 0 0 0 0 0 0 0 0 0 0 0 0 0
0 0 0 0 0 0 0 0 0 0 0 0 0 0 0 0 0 0 0 0 0 0 0 0 0 0 0 0 0 0 0 0 0 0 0 0 0 0 0 0 0 0 0 0
0 0 0 0 0 0 0 0 0 0 0 0 0 0 0 0 0 0 0 0 0 0 0 0 0 0 0 0 0 0 0 0 0 0 0 0 0 0 0 0 0 0 0 0
0 0 0 0 0 0 0 0 0 0 0 0 0 0 0 0 0 0 0 0 0 0 0 0 0 0 0 0 0 0 0 0 0 0 0 0 0 0 0 0 0 0 0 0
0 0 0 0 0 0 0 0 0 0 0 0 0 0 0 0 0 0 0 0 0 0 0 0 0 0 0 0 0 0 0 0 0 0 0 0 0 0 0 0 0 0 0 0
0 0 0 0 0 0 0 0 0 0 0 0 0 0 0 0 0 0 0 0 0 0 0 0 0 0 0 0 0 0 0 0 0 0 0 0 0 0 0 0 0 0 0 0
0 0 0 0 0 0 0 0 0 0 0 0 0 0 0 0 0 0 0 0 0 0 0 0 0 0 0 0 0 0 0 0 0 0 0 0 0 0 0 0 0 0 0 0
0 0 0 0 0 0 0 0 0 0 0 0 0 0 0 0 0 0 0 0 0 0 0 0 0 0 0 0 0 0 0 0 0 0 0 0 0 0 0 0 0 0 0 0
0 0 0 0 0 0 0 0 0 0 0 0 0 0 0 0 0 0 0 0 0 0 0 0 0 0 0 0 0 0 0 0 0 0 0 0 0 0 0 0 0 0 0 0
0 0 0 0 0 0 0 0 0 0 0 0 0 0 0 0 0 0 0 0 0 0 0 0 0 0 0 0 0 0 0 0 0 0 0 0 0 0 0 0 0 0 0 0
0 0 0 0 0 0 0 0 0 0 0 0 0 0 0 0 0 0 0 0 0 0 0 0 0 0 0 0 0 0 0 0 0 0 0 0 0 0 0 0 0 0 0 0
0 0 0 0 0 0 0 0 0 0 0 0 0 0 0 0 0 0 0 0 0 0 0 0 0 0 0 0 0 0 0 0 0 0 0 0 0 0 0 0 0 0 0 0
0 0 0 0 0 0 0 0 0 0 0 0 0 0 0 0 0 0 0 0 0 0 0 0 0 0 0 0 0 0 0 0 0 0 0 0 0 0 0 0 0 0 0 0
0 0 0 0 0 0 0 0 0 0 0 0 0 0 0 0 0 0 0 0 0 0 0 0 0 0 0 0 0 0 0 0 0 0 0 0 0 0 0 0 0 0 0 0
0 0 0 0 0 0 0 0 0 0 0 0 0 0 0 0 0 0 0 0 0 0 0 0 0 0 0 0 0 0 0 0 0 0 0 0 0 0 0 0 0 0 0 0
0 0 0 0 0 0 0 0 0 0 0 0 0 0 0 0 0 0 0 0 0 0 0 0 0 0 0 0 0 0 0 0 0 0 0 0 0 0 0 0 0 0 0 0
0 0 0 0 0 0 0 0 0 0 0 0 0 0 0 0 0 0 0 0 0 0 0 0 0 0 0 0 0 0 0 0 0 0 0 0 0 0 0 0 0 0 0 0
0 0 0 0 0 0 0 0 0 0 0 0 0 0 0 0 0 0 0 0 0 0 0 0 0 0 0 0 0 0 0 0 0 0 0 0 0 0 0 0 0 0 0 0
0 0 0 0 0 0 0 0 0 0 0 0 0 0 0 0 0 0 0 0 0 0 0 0 0 0 0 0 0 0 0 0 0 0 0 0 0 0 0 0 0 0 0 0
0 0 0 0 0 0 0 0 0 0 0 0 0 0 0 0 0 0 0 0 0 0 0 0 0 0 0 0 0 0 0 0 0 0 0 0 0 0 0 0 0 0 0 0
Wind_Speed
9 10 8 10 12 9 7 7 7 9 11 12 12 11 11 11 11 11 10 9 6 4 3 4 6 8 10 11 11 12 12 14 14 13 12 12 12 13 13 13 13 12 11 11
7 8 9 11 11 11 10 9 9 9 11 9 10 8 9 10 12 12 12 11 9 6 4 3 4 6 7 9 10 11 12 12 12 12 12 12 12 12 12 12 12 12 12 11
5 6 7 8 7 6 5 3 4 6 8 8 10 10 8 9 10 12 13 13 11 8 5 4 4 5 7 8 8 10 10 10 11 13 13 12 11 12 12 12 12 12 11 11
4 3 6 7 4 5 5 4 4 5 6 8 9 9 4 5 9 12 13 13 11 9 6 4 2 3 5 7 9 10 10 10 11 12 12 12 12 12 11 10 11 11 11 11
3 4 8 7 4 3 4 4 4 6 9 9 10 7 5 7 9 11 12 12 10 8 6 3 2 3 5 6 8 9 10 11 11 12 12 12 13 12 10 10 9 9 10 11
3 4 6 5 5 4 2 4 4 5 8 9 8 5 7 11 12 12 13 11 9 7 5 1 1 3 6 7 9 10 10 10 10 11 12 12 12 11 9 9 9 9 8 9
6 6 8 6 6 3 0 5 6 5 6 6 4 5 9 11 11 11 11 11 9 7 5 2 0 3 5 6 7 7 8 9 10 10 11 11 10 10 11 10 10 10 9 8
5 6 9 3 1 1 5 5 5 5 5 5 7 8 9 10 11 11 11 11 9 6 6 3 1 3 5 5 5 7 8 9 10 10 9 10 12 11 11 12 12 11 10 8
8 9 6 3 4 5 4 5 5 5 6 7 8 9 9 9 9 10 10 10 8 6 5 4 2 2 5 5 7 9 9 10 10 10 9 10 12 12 11 10 10 9 9 8
6 8 7 7 6 6 5 7 7 7 7 7 8 9 9 9 8 9 8 8 7 6 4 4 3 1 4 6 8 9 10 10 10 10 10 9 8 9 10 10 10 10 10 9
8 8 7 7 7 7 7 7 8 8 7 7 8 9 8 8 9 8 8 7 6 5 4 4 3 1 4 7 8 9 10 10 10 9 10 9 7 6 8 7 10 12 10 11
10 8 7 8 7 7 8 9 9 9 9 7 7 8 8 8 7 7 8 7 6 6 4 4 2 1 4 7 9 10 10 10 9 8 8 8 9 8 10 9 13 14 14 13
12 10 10 11 10 9 9 9 9 9 10 9 8 7 8 8 7 6 7 7 6 6 4 3 2 1 4 7 8 9 9 9 8 8 9 9 9 10 10 11 14 15 17 17
9 8 9 9 9 10 10 10 9 9 9 8 8 7 7 7 7 7 7 6 6 5 4 3 2 2 4 7 8 8 9 9 9 8 9 9 9 9 10 11 10 8 11 18
9 8 10 9 9 9 8 8 8 8 8 8 7 7 7 7 7 8 7 6 5 4 3 2 2 2 4 7 9 9 8 7 8 8 8 9 10 10 10 11 11 10 10 12
8 8 7 7 8 8 8 7 8 9 8 8 8 7 7 7 7 7 6 5 4 4 3 3 3 3 5 7 9 8 7 12 11 10 10 10 10 10 10 11 11 10 10 10
6 7 6 7 8 8 8 8 8 8 8 8 8 8 7 6 6 6 6 4 4 4 3 3 3 3 5 7 8 8 8 11 14 11 10 10 10 10 10 10 10 10 8 10
6 7 7 7 7 8 8 8 8 8 8 8 8 7 6 6 6 6 6 3 2 2 2 3 3 4 6 7 8 8 9 9 9 10 10 10 10 10 10 10 11 12 10 11
5 6 6 7 7 7 8 8 8 8 8 7 6 6 6 6 5 5 4 2 2 3 2 3 6 6 6 8 10 9 9 10 10 10 10 14 12 10 10 10 10 10 10 9
6 6 7 7 7 7 7 7 7 7 7 6 6 5 5 5 4 4 3 3 3 3 3 4 5 6 7 9 11 9 11 11 12 11 11 11 11 11 10 10 10 10 9 9
7 8 8 8 8 8 7 7 7 7 7 6 5 5 5 5 3 3 2 3 2 2 3 6 5 6 6 9 11 9 11 11 11 11 11 11 11 11 11 11 10 10 9 9
8 8 9 8 8 8 7 7 6 7 6 5 5 4 3 3 3 2 2 3 2 3 3 4 5 8 10 12 9 10 11 11 10 10 11 11 11 11 11 11 10 10 9 9
8 9 9 9 8 8 8 7 6 5 5 5 4 4 4 3 2 2 2 2 2 4 4 4 9 14 15 10 9 10 11 11 11 10 10 10 10 11 11 11 10 10 9 9
9 9 9 8 7 7 8 7 5 4 4 4 3 3 2 2 1 1 1 3 5 5 4 8 15 16 14 8 9 10 10 10 10 10 11 10 10 10 10 10 10 9 9 10
8 8 8 8 7 6 6 5 4 3 2 2 2 1 1 1 2 1 2 3 6 6 5 10 15 15 10 9 9 10 9 9 11 11 11 11 10 10 10 10 10 10 9 9
7 7 7 6 6 5 4 3 3 2 1 1 1 0 0 1 2 2 3 4 6 8 6 6 8 10 8 9 10 10 10 11 12 11 11 11 11 11 10 10 12 9 9 8
7 6 5 5 4 4 4 3 3 2 2 2 1 1 1 2 3 4 5 5 5 6 6 6 7 8 9 9 10 10 9 9 10 10 10 10 10 10 10 12 10 9 8 8
Wind_Direction
253 265 270 276 284 281 259 248 250 272 282 297 313 317 323 332 337 335 336 330 319 292 256 221 201 193 189 187 183 180 182 186 187 186 184 181 180 180 180 181 183 181 179 179
271 266 278 280 280 269 264 265 258 272 281 293 304 321 333 341 345 341 333 326 316 310 289 238 210 196 184 181 180 177 180 183 178 174 175 176 176 174 174 175 174 171 174 175
275 298 310 282 272 267 262 264 270 268 282 319 327 328 325 334 338 332 329 324 318 309 292 254 221 197 185 178 171 173 175 172 169 171 172 173 169 167 169 170 168 169 171 172
272 324 260 254 274 277 273 276 303 296 314 325 315 307 305 337 335 329 327 323 318 313 301 280 235 199 176 167 166 167 167 167 166 165 166 165 164 167 166 164 165 167 168 168
232 250 272 285 291 282 266 279 309 310 315 319 319 313 303 335 331 317 316 315 309 305 296 276 214 175 156 161 162 161 165 166 165 162 160 160 163 163 159 155 155 159 161 158
221 235 252 261 287 289 262 284 316 315 313 320 337 330 311 326 322 317 319 319 319 320 323 310 210 153 150 159 162 166 166 164 160 158 158 159 157 151 146 145 145 144 144 150
222 240 263 262 291 338 264 273 304 305 304 317 310 277 292 309 313 314 320 322 327 328 336 314 224 142 148 155 165 160 150 149 149 150 150 147 142 140 140 137 135 135 133 134
204 227 250 262 309 201 242 270 286 287 289 298 296 295 302 310 318 325 326 326 330 334 337 329 298 151 146 151 141 135 138 140 140 140 139 139 139 139 139 138 135 133 129 125
204 226 246 246 236 249 243 258 270 278 288 292 299 302 305 307 314 319 322 323 326 329 333 335 327 163 154 150 139 135 136 138 136 135 137 142 144 143 142 141 139 139 137 134
248 258 264 269 270 273 259 256 267 273 280 284 290 297 303 307 310 313 317 321 324 325 330 330 324 286 154 144 140 137 139 139 138 137 137 139 141 145 147 148 144 143 143 140
253 266 281 269 259 265 273 274 279 283 279 276 283 291 294 300 304 307 309 313 318 313 305 307 312 265 146 143 138 136 138 138 135 136 139 136 130 134 143 150 155 152 152 149
245 244 245 264 268 274 279 277 277 279 281 276 269 276 286 292 292 298 305 308 309 305 298 304 309 217 151 146 142 140 142 141 139 139 136 132 125 103 85 114 128 133 139 139
246 257 255 263 270 271 271 275 275 272 271 275 275 272 276 283 286 291 298 302 301 299 290 294 295 202 157 149 145 146 147 144 141 141 139 137 135 130 118 97 99 115 126 129
251 259 267 266 268 275 273 275 276 274 270 267 271 275 273 277 282 287 289 291 293 292 284 281 275 205 157 145 140 139 140 141 141 141 139 138 136 132 131 130 124 112 116 125
256 250 254 270 277 280 281 283 283 281 280 275 270 270 271 274 279 284 284 285 288 282 268 255 241 196 150 143 141 141 140 140 136 132 131 131 128 126 125 124 123 123 120 123
272 272 267 270 277 283 286 285 280 281 283 279 276 272 270 270 273 279 280 274 266 263 250 233 227 188 153 145 141 139 137 138 136 134 132 130 129 129 130 129 129 131 133 135
271 279 282 286 284 285 282 276 273 276 281 280 277 276 275 277 280 281 282 279 258 252 239 215 208 174 155 149 145 140 136 136 133 130 131 133 133 134 134 133 133 132 131 140
251 260 267 272 280 287 290 287 282 280 278 278 281 278 271 266 268 274 280 286 275 274 247 201 174 155 150 148 145 140 138 139 138 134 133 133 131 130 130 130 132 130 129 133
291 288 290 288 286 285 287 288 287 283 281 281 278 270 264 263 264 269 276 263 234 241 238 179 160 151 149 149 142 136 136 135 132 130 130 133 129 128 130 131 132 132 133 132
314 309 303 298 296 290 289 291 291 290 287 285 278 271 270 270 268 266 258 250 243 228 191 166 154 148 146 143 138 136 137 137 135 134 133 134 133 132 131 131 132 132 132 132
308 306 304 302 299 295 288 288 289 287 288 285 271 263 264 269 266 245 223 250 259 201 173 160 150 146 143 141 136 136 136 136 136 137 137 136 135 134 134 134 134 134 134 132
303 299 297 296 294 294 293 289 284 283 283 281 272 262 260 264 263 249 232 233 220 174 158 152 147 148 147 141 135 135 135 135 135 135 136 137 138 138 138 137 136 135 134 133
296 295 294 292 291 290 292 288 283 279 274 271 266 253 245 244 233 217 240 220 177 160 152 152 150 147 144 135 133 134 136 136 136 136 136 137 138 138 138 137 135 135 136 135
291 290 289 289 288 285 286 288 287 280 274 276 267 248 230 234 264 252 210 166 156 149 150 151 149 146 139 132 131 132 133 134 133 132 131 131 132 133 134 134 133 134 134 134
286 284 283 284 281 276 275 278 280 273 272 279 282 267 243 215 206 185 147 144 143 136 133 143 142 137 132 127 130 130 130 132 132 132 132 133 133 133 132 132 133 134 135 135
286 285 280 274 269 268 268 267 264 260 247 248 270 260 175 142 138 133 125 122 124 125 122 124 128 126 123 124 125 125 125 128 128 127 130 130 131 131 131 131 130 132 134 133
288 285 283 280 273 263 259 256 248 241 227 210 205 165 132 126 122 118 116 114 113 112 112 113 115 117 118 120 120 119 120 121 123 124 126 127 130 130 131 131 131 131 132 134